(110053) = 2001 SO96

Discovered at Socorro on 2001-09-20 by LINEAR.

Orbit

Orbit type: Main Belt

Note: WebGL enabled browser required.

epoch2024-03-31.0
epoch JD2460400.5
perihelion date2019-08-07.33898
perihelion JD2458702.83898
argument of perihelion (°)182.24095
ascending node (°)203.82194
inclination (°)2.66347
eccentricity0.0683693
perihelion distance (AU)3.0083650
Tisserand w.r.t. Jupiter3.2
ΔV w.r.t. Earth (km/sec)10.7
semimajor axis (AU)3.2291389
mean anomaly (°)288.35318
mean daily motion (°/day)0.16985320
aphelion distance (AU)3.450
period (years)5.8
P-vector [x]0.89832934
P-vector [y]0.40379000
P-vector [z]0.17308391
Q-vector [x]-0.43892155
Q-vector [y]0.84174975
Q-vector [z]0.31433297
absolute magnitude15.45
phase slope0.15
uncertainty0
referenceMPEC 2024-E02
observations used563
oppositions18
arc length (days)9776
first opposition used1995
last opposition used2022
residual rms (arc-secs)0.76
perturbers coarse indicatorM-v
perturbers precise indicator003Ek
first observation date used1995-07-26.0
last observation date used2022-05-01.0
computer nameMPCLINUX
JD of orbit computation2456700.294466
perihelion JD uncertainty (days)1.7692E-04
argument of perihelion uncertainty (°)8.5848E-05
ascending node uncertainty (°)7.9952E-05
inclination uncertainty (°)6.8619E-06
eccentricity uncertainty 6.4166E-08
perihelion distance uncertainty (AU)2.0565E-07
Minimum Orbit Intersection Distances (in AU)
for orbit epoch: 2460400.5, reference: E2024-E02
Mercury2.6687
Venus2.28465
Earth2.01235
Mars1.54323
Jupiter1.93027
Saturn5.87874
Uranus15.0385
Neptune26.8118

Observations

578 total observations over interval: 1995 07 26.39836 – 2022 05 01.683493
These data are available for download (format description).

Date (UT) J2000 RA J2000 Dec Magn Location Ref
1995 07 26.39836 23 15 06.96 -01 54 17.1 20.7 V 691 – Steward Observatory, Kitt Peak-Spacewatch MPS 52348
1995 07 26.41921 23 15 06.70 -01 54 18.4 20.4 V 691 – Steward Observatory, Kitt Peak-Spacewatch MPS 52348
1995 07 26.44016 23 15 06.42 -01 54 19.8 20.5 V 691 – Steward Observatory, Kitt Peak-Spacewatch MPS 52348
1999 04 22.25079 13 42 13.40 -10 18 34.9 22.0 V 691 – Steward Observatory, Kitt Peak-Spacewatch MPS 79918
1999 04 22.27462 13 42 12.28 -10 18 29.5 20.9 V 691 – Steward Observatory, Kitt Peak-Spacewatch MPS 79918
1999 04 22.29575 13 42 11.35 -10 18 23.3 21.6 V 691 – Steward Observatory, Kitt Peak-Spacewatch MPS 79918
1999 05 16.23135 13 27 20.09 -08 38 37.1 20.9 V 691 – Steward Observatory, Kitt Peak-Spacewatch MPS 52348
1999 05 16.25256 13 27 19.45 -08 38 32.7 20.6 V 691 – Steward Observatory, Kitt Peak-Spacewatch MPS 52348
1999 05 16.27364 13 27 18.82 -08 38 28.4 21.0 V 691 – Steward Observatory, Kitt Peak-Spacewatch MPS 52348
2001 08 27.45325 00 06 49.91 +02 51 17.1 20.3 V 691 – Steward Observatory, Kitt Peak-Spacewatch MPS 38181
2001 08 27.47097 00 06 49.37 +02 51 13.3 20.5 V 691 – Steward Observatory, Kitt Peak-Spacewatch MPS 38181
2001 08 27.48868 00 06 48.82 +02 51 09.5 20.9 V 691 – Steward Observatory, Kitt Peak-Spacewatch MPS 38181
2001 09 20.25341 23 51 51.76 +01 01 09.4 19.0   704 – Lincoln Laboratory ETS, New Mexico MPS 36616
2001 09 20.26757 23 51 51.15 +01 01 04.6 19.4   704 – Lincoln Laboratory ETS, New Mexico MPS 36617
2001 09 20.28172 23 51 50.49 +01 01 00.5 19.7   704 – Lincoln Laboratory ETS, New Mexico MPS 36617
2001 09 20.29586 23 51 49.90 +01 00 55.9 19.8   704 – Lincoln Laboratory ETS, New Mexico MPS 36617
2001 09 20.31000 23 51 49.29 +01 00 50.9 19.9   704 – Lincoln Laboratory ETS, New Mexico MPS 36617
2001 09 22.25710 23 50 27.26 +00 50 27.7 18.9   704 – Lincoln Laboratory ETS, New Mexico MPS 36617
2001 09 22.27127 23 50 26.68 +00 50 23.2 19.6   704 – Lincoln Laboratory ETS, New Mexico MPS 36617
2001 09 22.28544 23 50 26.00 +00 50 18.0 19.6   704 – Lincoln Laboratory ETS, New Mexico MPS 36617
2001 09 22.29963 23 50 25.43 +00 50 13.8 19.8   704 – Lincoln Laboratory ETS, New Mexico MPS 36617
2001 09 23.25379 23 49 45.34 +00 45 07.2 19.4   704 – Lincoln Laboratory ETS, New Mexico MPS 43891
2001 09 23.26796 23 49 44.68 +00 45 02.8 19.6   704 – Lincoln Laboratory ETS, New Mexico MPS 43891
2001 09 23.28212 23 49 44.09 +00 44 58.3 19.5   704 – Lincoln Laboratory ETS, New Mexico MPS 43891
2001 09 23.29629 23 49 43.54 +00 44 53.3 19.3   704 – Lincoln Laboratory ETS, New Mexico MPS 43891
2001 09 23.31045 23 49 42.81 +00 44 49.5 19.3   704 – Lincoln Laboratory ETS, New Mexico MPS 43891
2001 09 24.33265 23 48 59.97 +00 39 19.5 19.3   704 – Lincoln Laboratory ETS, New Mexico MPS 40532
2001 09 24.34726 23 48 59.24 +00 39 13.5 20.2   704 – Lincoln Laboratory ETS, New Mexico MPS 40532
2001 09 24.36187 23 48 58.73 +00 39 10.4 20.0   704 – Lincoln Laboratory ETS, New Mexico MPS 40533
2001 09 24.37650 23 48 58.04 +00 39 06.2 20.0   704 – Lincoln Laboratory ETS, New Mexico MPS 40533
2001 09 24.39112 23 48 57.48 +00 39 01.6 19.9   704 – Lincoln Laboratory ETS, New Mexico MPS 40533
2001 09 25.25434 23 48 21.62 +00 34 23.4 19.8   704 – Lincoln Laboratory ETS, New Mexico MPS 49466
2001 09 25.26932 23 48 20.92 +00 34 18.7 19.4   704 – Lincoln Laboratory ETS, New Mexico MPS 49466
2001 09 25.28435 23 48 20.33 +00 34 14.6 19.5   704 – Lincoln Laboratory ETS, New Mexico MPS 49466
2001 09 25.31434 23 48 19.01 +00 34 04.2 19.8   704 – Lincoln Laboratory ETS, New Mexico MPS 49466
2001 10 14.282120 23 36 38.381 -00 59 44.50 20.22 V 645 – Apache Point-Sloan Digital Sky Survey MPS 79918
2001 10 14.285592 23 36 38.276 -00 59 45.36 20.92   645 – Apache Point-Sloan Digital Sky Survey MPS 79918
2004 02 14.46498 10 29 56.46 +06 20 10.3 20.9 V 691 – Steward Observatory, Kitt Peak-Spacewatch MPS 103826
2004 02 14.49200 10 29 55.29 +06 20 17.5 20.8 V 691 – Steward Observatory, Kitt Peak-Spacewatch MPS 103827
2004 02 14.52018 10 29 54.10 +06 20 24.5 21.1 V 691 – Steward Observatory, Kitt Peak-Spacewatch MPS 103827
2004 02 19.21149 10 26 33.12 +06 41 10.5 20.3 R 735 – George Observatory, Needville MPS 100017
2004 02 19.22227 10 26 32.65 +06 41 13.9 20.1 R 735 – George Observatory, Needville MPS 100017
2004 02 19.23304 10 26 32.13 +06 41 16.3 20.2 R 735 – George Observatory, Needville MPS 100017
2004 02 29.24943 10 19 13.46 +07 27 49.5 21.1 V 691 – Steward Observatory, Kitt Peak-Spacewatch MPS 100676
2004 02 29.28555 10 19 11.85 +07 27 59.7 20.8 V 691 – Steward Observatory, Kitt Peak-Spacewatch MPS 100676
2004 02 29.31436 10 19 10.57 +07 28 07.8 20.8 V 691 – Steward Observatory, Kitt Peak-Spacewatch MPS 100676
2005 04 16.35553 14 43 19.75 -14 53 39.6 21.2 V 691 – Steward Observatory, Kitt Peak-Spacewatch MPS 132549
2005 04 16.37392 14 43 19.04 -14 53 35.9 20.6 V 691 – Steward Observatory, Kitt Peak-Spacewatch MPS 132549
2005 04 16.39226 14 43 18.28 -14 53 32.0 20.7 V 691 – Steward Observatory, Kitt Peak-Spacewatch MPS 132549
2005 05 10.26853 14 26 10.38 -13 17 14.1 19.7 R G96 – Mt. Lemmon Survey MPS 133907
2005 05 10.27538 14 26 10.08 -13 17 12.5 19.8 R G96 – Mt. Lemmon Survey MPS 133907
2005 05 10.28223 14 26 09.79 -13 17 10.4 19.4 R G96 – Mt. Lemmon Survey MPS 133907
2005 05 10.28909 14 26 09.49 -13 17 09.1 19.5 R G96 – Mt. Lemmon Survey MPS 133907
2005 06 13.19245 14 09 24.33 -11 39 53.9 20.7 V G96 – Mt. Lemmon Survey MPS 136483
2005 06 13.19913 14 09 24.26 -11 39 53.2 20.3 V G96 – Mt. Lemmon Survey MPS 136483
2005 06 13.20586 14 09 24.15 -11 39 52.2 20.5 V G96 – Mt. Lemmon Survey MPS 136483
2005 06 13.21256 14 09 24.08 -11 39 51.6 20.4 V G96 – Mt. Lemmon Survey MPS 136483
2007 09 13.23896 01 01 45.42 +07 42 29.0 19.7   704 – Lincoln Laboratory ETS, New Mexico MPS 217557
2007 09 13.25055 01 01 45.08 +07 42 26.5 20.3   704 – Lincoln Laboratory ETS, New Mexico MPS 217557
2007 09 13.26213 01 01 44.68 +07 42 24.5 19.9   704 – Lincoln Laboratory ETS, New Mexico MPS 217557
2007 09 13.28531 01 01 43.97 +07 42 18.3 20.3   704 – Lincoln Laboratory ETS, New Mexico MPS 217557
2007 09 13.41391 01 01 39.74 +07 41 49.0 19.7 V 691 – Steward Observatory, Kitt Peak-Spacewatch MPS 215812
2007 09 13.43161 01 01 39.15 +07 41 45.3 19.7 V 691 – Steward Observatory, Kitt Peak-Spacewatch MPS 215812
2007 09 13.45560 01 01 38.41 +07 41 37.3 19.5 V 691 – Steward Observatory, Kitt Peak-Spacewatch MPS 215812
2007 09 14.31782 01 01 11.17 +07 38 17.6 19.8 V G96 – Mt. Lemmon Survey MPS 217557
2007 09 14.32347 01 01 10.95 +07 38 16.3 19.9 V G96 – Mt. Lemmon Survey MPS 217557
2007 09 14.33446 01 01 10.59 +07 38 14.1 19.7 V G96 – Mt. Lemmon Survey MPS 217557
2007 09 14.34017 01 01 10.41 +07 38 12.8 19.7 V G96 – Mt. Lemmon Survey MPS 217557
2007 10 04.32002 00 48 13.78 +06 02 54.7 19.5 V 703 – Catalina Sky Survey MPS 218347
2007 10 04.32764 00 48 13.46 +06 02 51.5 19.5 V 703 – Catalina Sky Survey MPS 218347
2007 10 04.33528 00 48 13.10 +06 02 48.1 20.1 V 703 – Catalina Sky Survey MPS 218347
2007 10 04.34287 00 48 12.74 +06 02 46.8 20.0 V 703 – Catalina Sky Survey MPS 218347
2007 10 06.20758 00 46 53.04 +05 52 48.7 19.3   704 – Lincoln Laboratory ETS, New Mexico MPS 219904
2007 10 06.21842 00 46 52.67 +05 52 45.3 19.9   704 – Lincoln Laboratory ETS, New Mexico MPS 219904
2007 10 06.22935 00 46 52.04 +05 52 42.9 19.9   704 – Lincoln Laboratory ETS, New Mexico MPS 219904
2007 10 06.24019 00 46 51.64 +05 52 39.3 19.7   704 – Lincoln Laboratory ETS, New Mexico MPS 219904
2007 10 06.25101 00 46 51.17 +05 52 35.4 20.3   704 – Lincoln Laboratory ETS, New Mexico MPS 219904
2007 10 06.94178 00 46 21.60 +05 48 53.0 19.1 V J87 – La Canada MPS 219904
2007 10 06.95807 00 46 20.91 +05 48 47.9 19.0 V J87 – La Canada MPS 219904
2007 10 06.97436 00 46 20.16 +05 48 42.4 19.2 V J87 – La Canada MPS 219904
2007 10 07.30126 00 46 06.18 +05 46 57.4 19.5 r 699 – Lowell Observatory-LONEOS MPS 255630
2007 10 07.32683 00 46 04.96 +05 46 49.5   699 – Lowell Observatory-LONEOS MPS 255630
2007 10 07.35244 00 46 03.80 +05 46 42.0   699 – Lowell Observatory-LONEOS MPS 255630
2007 10 07.37799 00 46 02.66 +05 46 31.9   699 – Lowell Observatory-LONEOS MPS 255630
